Location: Lake Crest
(37.6062°N, 88.9176°W)
Time: 04:34:08
(UTC+00:00)

USA 116 - Pass Details

Date: 15 December 2019
Orbit: 405 x 834 km, 97.9° (Epoch: 18 November)

Event Time Altitude Azimuth Distance (km) Brightness Sun altitude
Rises 11:31:27 0° 166° (SSE) 2,908 7.8 -17.6°
Reaches altitude 10° 11:33:32 10° 167° (SSE) 2,063 7.0 -17.2°
Maximum altitude 11:38:06 89° 258° (WSW) 717 4.2 -16.3°
Drops below altitude 10° 11:43:12 10° 348° (NNW) 2,297 6.6 -15.4°
Sets 11:45:37 0° 348° (NNW) 3,265 7.4 -14.9°
Enters shadow 11:45:49 -1° 348° (NNW) 3,344 7.4 -14.9°
